Tracking 27122 objects as of 25-Mar-2023
HD Live streaming from Space Station
objects crossing your sky now

ARIANE 5 DEB (SYLDA)

Track ARIANE 5 DEB (SYLDA) now!
10-day predictions


NORAD ID: 33155
Int'l Code: 2008-034C
Perigee: 279.1 km
Apogee: 22,422.5 km
Inclination: 1.5 °
Period: 391.3 minutes
Semi major axis: 17721 km
RCS: 19.978 m2 (large)
Launch date: July 7, 2008
Source: France (FR)
Launch site: FRENCH GUIANA (FRGUI)

Note: This is SATELLITE DEBRIS
Your satellite tracking list
Your tracking list is empty




NASA's NSSDC Master Catalog

Two Line Element Set (TLE):
1 33155U 08034C   23083.57983680  .00040027  00000-0  78956-2 0  9994
2 33155   1.5240 274.8783 6247501 144.4770 279.5542  3.67993903157907
Source of the keplerian elements: AFSPC